Location: Ago
(8.4667°N, 4.4833°E)
Time: 23:02:21
(UTC+00:00)

Cosmos 2151 Rocket - Pass Details

Date: 18 September 2020
Orbit: 618 x 642 km, 82.5° (Epoch: 20 October)

Event Time Altitude Azimuth Distance (km) Brightness Sun altitude
Rises 18:33:40 0° 164° (SSE) 2,887 6.8 -14.0°
Reaches altitude 10° 18:36:06 10° 153° (SSE) 1,984 5.9 -14.6°
Maximum altitude 18:39:56 30° 93° (E) 1,128 4.3 -15.6°
Drops below altitude 10° 18:43:47 10° 32° (NNE) 1,993 5.9 -16.5°
Sets 18:46:13 0° 21° (NNE) 2,903 6.8 -17.1°
